www.pogodaiklimat.ru

Погода и климат >> Архив погоды >> Бангладеш >> Sandwip


ПОГОДА в Sandwip

  • Прогноз погоды в Sandwip
  • Монитор погоды в Sandwip
  • Климат города

АРХИВ ПОГОДЫ в Sandwip

Время (UTC), дата Ветер
(напр.,м/с)
 
Видим.   Явления Облачность Т
(С)
Тd
(С)
f
(%)
Тe
(С)
Тes
(С)
Комфортность P
(гПа)
Po
(гПа)
Тmin
(С)
Tmax
(С)
R
(мм)
R24
(мм)
S
(см)
21 10.10 Ю 1 4000 м слабый дождь 10/5 540 м
[Cb calv As op]
+24.3 +24.0 98 +33 +33 очень
душно
1009.9 1009.7
00 11.10 Ю 1 5000 м слабый дождь 10/5 540 м
[Cb calv As op]
+24.2 +24.0 99 +33 +33 очень
душно
1009.5 1009.2 18
03 11.10 В 1 5000 м слабый дождь 10/5 480 м
[Cb calv As op]
+24.0 +23.0 94 +32 +33 очень
душно
1012.4 1012.2 +23.3 12
06 11.10 ЮВ 1 5000 м слабый дождь 10/5 480 м
[Cb calv As op]
+24.1 +24.0 99 +33 +35 очень
душно
1011.7 1011.5 29
09 12.10 ЮВ 1 6000 м в посл. час дождь 9/4 540 м
[Sc As op]
+25.8 +25.0 95 +37 +38 очень
душно
1009.5 1009.3 1
12 12.10 штиль 0 5000 м {дождь} 10/4 540 м
[Sc As op]
+25.0 +24.0 94 +34 +34 очень
душно
1010.2 1010.0 +26.9 1
15 13.10 ЮВ 1 5000 м дождь 10/4 540 м
[Sc As op]
+26.0 +25.0 94 +37 +37 очень
душно
1009.6 1009.4 0.6
18 13.10 ЮВ 1 4000 м гроза без осадков {дождь} 10/4 500 м
[Sc As op]
+25.6 +25.5 99 +37 +37 очень
душно
1009.0 1008.8 29
21 13.10 штиль 0 4000 м {гроза} 9/4 540 м
[Sc As op]
+25.3 +25.0 98 +36 +36 очень
душно
1008.8 1008.5
00 14.10 штиль 0 6000 м {гроза} 8/4 540 м
[Sc As op]
+25.1 +25.0 99 +36 +36 очень
душно
1008.6 1008.3
03 14.10 СЗ 1 7000 м 5/4 540 м
[Sc As trans]
+28.0 +24.0 79 +39 +44 очень
душно
1011.5 1011.3 +23.5
15 14.10 штиль 0 5000 м ясно +25.5 +25.0 97 +36 +36 очень
душно
1010.5 1010.3
18 14.10 штиль 0 4000 м ясно +24.7 +24.0 96 +34 +34 очень
душно
1010.9 1010.7
21 14.10 штиль 0 4000 м мгла ясно +24.1 +24.0 99 +33 +33 очень
душно
1011.5 1011.3
00 15.10 штиль 0 5000 м мгла ясно +23.5 +23.5 100 +32 +32 очень
душно
1012.1 1011.9
03 15.10 штиль 0 6000 м 4/4 300 м
[Sc]
+28.0 +24.0 79 +39 +45 очень
душно
1014.9 1014.7 +22.2
06 15.10 В 1 7000 м 6/4 300 м
[Sc As trans]
+30.0 +23.0 66 +40 +49 очень
душно
1014.1 1013.8
09 15.10 СЗ 2 7000 м 4/4 540 м
[Sc]
+31.9 +23.0 59 +42 +46 опасность
перегрева
1011.1 1010.8
12 15.10 штиль 0 6000 м ясно +27.9 +25.0 84 +40 +40 очень
душно
1010.6 1010.3 +32.1
15 15.10 штиль 0 5000 м ясно +25.5 +25.0 97 +36 +36 очень
душно
1011.9 1011.6
18 15.10 штиль 0 4000 м ясно +24.6 +24.0 96 +34 +34 очень
душно
1012.3 1012.1
00 16.10 штиль 0 4000 м мгла ясно +24.2 +24.0 99 +33 +33 очень
душно
1012.1 1011.9
03 16.10 штиль 0 6000 м ясно +28.8 +24.0 75 +40 +50 очень
душно
1013.4 1013.1 +22.9
06 16.10 СЗ 2 6000 м ясно +31.2 +22.0 58 +40 +57 опасность
солнечного
удара
1013.7 1013.4
09 16.10 СЗ 2 7000 м ясно +31.6 +20.0 50 +38 +45 очень
душно
1010.2 1009.9
12 16.10 штиль 0 5000 м ясно +26.7 +25.0 90 +38 +38 очень
душно
1010.6 1010.3 +31.8
15 16.10 штиль 0 4000 м ясно +25.0 +24.0 94 +34 +34 очень
душно
1011.8 1011.6
18 16.10 штиль 0 4000 м ясно +24.5 +24.0 97 +34 +34 очень
душно
1011.4 1011.2
21 16.10 штиль 0 4000 м мгла ясно +23.4 +22.0 92 +32 +32 очень
душно
1010.9 1010.7
00 17.10 штиль 0 5000 м мгла ясно +23.0 +22.0 94 +31 +31 очень
душно
1010.5 1010.3
03 17.10 штиль 0 6000 м ясно +28.6 +22.0 68 +37 +47 очень
душно
1013.7 1013.4 +22.0
06 17.10 штиль 0 6000 м 5/4 300 м
[Sc As trans]
+31.0 +21.0 55 +38 +50 очень
душно
1011.4 1011.1
09 17.10 штиль 0 6000 м 4/4 540 м
[Sc]
+31.2 +20.0 51 +37 +43 очень
душно
1008.6 1008.4
12 17.10 штиль 0 5000 м ясно +26.3 +25.0 93 +38 +38 очень
душно
1008.7 1008.5 +31.6
15 17.10 штиль 0 4000 м ясно +25.0 +23.0 89 +33 +33 очень
душно
1010.1 1010.0
18 17.10 штиль 0 4000 м ясно +23.6 +23.0 96 +31 +31 очень
душно
1010.0 1009.8

 

Местоположение метеостанции Sandwip (Бангладеш): широта 22.48 долгота 91.43 высота над уровнем моря 6 м.

В архиве по умолчанию представлена погода в Sandwip за последнюю неделю. Архивные данные за месяц целиком и за предыдущие месяцы, начиная с января 2011 года, Вы можете получить, выбрав интересующий диапазон дат из раскрывающегося списка и нажав кнопку "Ввод!".


*Определитесь, кто Вы:
робот инопланетянин человек

Внимание! Время в таблицах - всемирное. Для получения местного времени необходимо прибавить поправку, которая в Sandwip равна 6.5 ч.

Смотрите также архив погоды в соседних городах и на ближайших метеорологических станциях:

Погода в Sitakundu (Бангладеш) (30 км)
Погода в Hatia (Бангладеш) (34 км)
Погода в Chittagong (Бангладеш) (46 км)
Погода в Maijdicourt (Бангладеш) (55 км)
Погода в Feni (Бангладеш) (61 км)
Погода в Rangamati (Бангладеш) (79 км)
Погода в Bhola (Бангладеш) (83 км)
Погода в Kutubdia (Бангладеш) (85 км)
Погода в Comilla (Бангладеш) (109 км)
Погода в Barisal (Бангладеш) (113 км)

Пояснения к столбцам:

Ветер - указаны скорость ветра в м/с - средняя за 10 мин, порывы в срок и между сроками (в фигурных скобках) и направление, откуда дует ветер: С - северный, СВ - северо-восточный, В - восточный, ЮВ - юго-восточный, Ю - южный, ЮЗ - юго-западный, З - западный, СЗ - северо-западный.
Видимость - горизонтальная дальность видимости в метрах или километрах. При видимости от 1 до 10 км при отсутствии осадков обычно наблюдается дымка, при ухудшении видимости до 1 км и менее - туман. В сухую погоду видимость может ухудшаться дымом, пылью или мглою.
Явления - указаны атмосферные явления, наблюдавшиеся в срок или в последний час перед сроком; фигурными скобками обозначены явления, наблюдавшиеся между сроками (за 1-3 часа до срока); квадратными скобками обозначены град или гололедные отложения с указанием их диаметра в мм.
Облачность - указаны через наклонную черту общая и нижняя облачность в баллах и высота нижней границы облаков в метрах; квадратными скобками обозначены формы облаков: Ci - перистые, Cs - перисто-слоистые, Cc - перисто-кучевые, Ac - высококучевые, As - высокослоистые, Sc - слоисто-кучевые, Ns - слоисто-дождевые, Cu - кучевые, Cb - кучево-дождевые. Подробнее классификацию облаков см. в Атласе облаков (PDF).
T - Температура воздуха - температура, измеренная на высоте 2 м над землей.
Td - Температура точки росы - температура, при понижении до которой содержащийся в воздухе водяной пар достигнет насыщения.
f - Относительная влажность воздуха - влажноcть воздуха, измеренная на высоте 2 м над землей.
Te - Эффективная температура - температура, которую ощущает одетый по сезону человек в тени. Характеристика душности погоды. При расчете учитывается влияние влажности воздуха и скорости ветра на теплоощущения человека.
Tes - Эффективная температура на солнце - температура, которую ощущает человек, с поправкой на солнечный нагрев. Характеристика знойности погоды. Зависит от высоты солнца над горизонтом, облачности и скорости ветра. Ночью, в пасмурную погоду, а также при ветре 12 м/с и более поправка равна нулю.
P - Атмосферное давление - приведенное к уровню моря атмосферное давление.
Po - Атмосферное давление - измеренное на уровне метеостанции атмосферное давление.
Tmin - Минимальная температура - минимум температуры воздуха на высоте 2 м над землей.
Tmax - Максимальная температура - максимум температуры воздуха на высоте 2 м над землей.
R - Количество осадков - Количество выпавших осадков за период времени, мм. При наведении курсора мыши на число - период времени, за который выпало указанное количество осадков.
R24 - Количество осадков - Количество выпавших осадков за 24 часа, мм.
S - Снежный покров - Высота снежного покрова, см. При наведении курсора мыши на число - состояние снежного покрова и степень покрытия местности в баллах.